[[{"header":{"parameterUnit":"m.s-1","parameterCategory":1,"la1":30.2991,"la2":30.254,"lo1":-89.0895,"lo2":-89.0444,"dx":0.0017,"dy":0.0017,"nx":28,"ny":28,"refTime":"2022-12-14T09:00:00:Z","depth":0,"parameterNumber":2,"parameterNumberName":"U-component_of_WINDS"},"data":[0,0,0,0,0,0,0,0,0,0,0,0,0,0,0,0,0,0,0,0,0,0,0,0,0,0,0,0,0,0,0,0,0,0,0,0,0,0,0,0,0,0,0,0,0,0,0,0,0,0,0,0,0,0,0,0,0,0,3.2203,3.2203,0,3.2275,3.2276,3.2277,3.2262,3.2261,3.226,3.2259,3.2335,3.2338,3.2342,0,0,0,0,0,0,0,0,0,0,0,0,0,3.2055,3.2057,3.2202,3.2203,3.2204,3.2275,3.2276,3.2277,3.2263,3.2261,3.2259,3.2258,3.2334,3.2338,3.2342,0,0,0,0,0,0,0,0,0,0,0,0,0,3.2122,3.2058,3.2202,3.2206,3.2207,3.2275,3.2276,3.2277,3.2263,3.2261,3.2259,3.2257,3.2333,3.2338,3.2342,3.2413,0,0,3.2357,3.236,0,0,0,0,0,0,0,0,3.2118,3.2128,3.2204,3.2206,3.2207,3.2258,3.2252,3.2323,3.2264,3.2242,3.2259,3.2256,3.2311,3.2318,3.2336,3.2416,3.2419,3.2358,3.2361,3.2363,3.2364,0,0,0,0,0,0,0,3.2114,3.2125,3.2231,3.2205,3.2207,3.2205,3.2212,3.2265,3.2287,3.2243,3.2243,3.2251,3.2311,3.2331,3.2337,3.242,3.2358,3.2362,3.2365,3.2367,3.2564,3.2567,0,0,0,0,0,0,3.2108,3.2121,3.2229,3.2233,3.2157,3.2209,3.2217,3.2243,3.2286,3.2291,3.2253,3.225,3.2324,3.2332,3.234,3.2426,3.2363,3.2367,3.237,3.2562,3.2565,3.2567,0,0,0,0,0,0,3.2104,3.2117,3.2226,3.2177,3.2191,3.2213,3.2243,3.2246,3.2265,3.2293,3.2297,3.2269,3.2322,3.2333,3.2395,3.2429,3.237,3.2374,3.256,3.2563,3.2566,3.2599,0,0,0,0,0,0,3.21,3.2116,3.2142,3.2178,3.2193,3.2279,3.2245,3.2249,3.2274,3.2271,3.2309,3.2314,3.2322,3.2388,3.24,3.2435,3.2378,3.2557,3.2561,3.2565,3.2595,3.2603,3.261,0,0,0,0,0,3.2095,3.2149,3.2144,3.2157,3.2226,3.2281,3.229,3.2297,3.2276,3.2303,3.2322,3.2312,3.2423,3.2394,3.2408,3.2444,3.2554,3.256,3.2565,3.2591,3.2601,3.261,0,0,0,0,0,0,3.2117,3.2153,3.2148,3.2214,3.2245,3.2278,3.2312,3.2307,3.2344,3.234,3.2349,3.2358,3.2421,3.2439,3.2406,3.2516,3.2486,3.2494,3.2502,3.2511,3.2519,3.2513,3.2382,0,0,0,0,0,3.2129,3.217,3.22,3.2255,3.2271,3.2289,3.2313,3.2316,3.2348,3.2361,3.2384,3.2416,3.2458,3.2485,3.2526,3.2597,3.2606,3.2629,3.2637,3.2643,3.265,3.2691,3.2702,3.2584,3.2584,3.2584,0,0,3.2156,3.2181,3.2206,3.2261,3.2284,3.2327,3.23,3.2346,3.2378,3.2368,3.2428,3.2446,3.2483,3.255,3.2581,3.2567,3.2685,3.265,3.2654,3.2658,3.2698,3.2709,3.2719,3.2588,3.2587,3.2587,0,0,3.2226,3.2248,3.2298,3.2322,3.2359,3.2371,3.2383,3.2417,3.2429,3.2489,3.2483,3.2522,3.2594,3.2621,3.2644,3.2726,3.272,3.2739,3.2779,3.2819,3.2828,3.2836,3.2867,3.2878,3.2746,3.2746,3.2746,0,3.2254,3.2318,3.2324,3.2371,3.2397,3.2389,3.2441,3.2464,3.2512,3.253,3.2514,3.2605,3.2629,3.2704,3.2724,3.2742,3.2758,3.2735,3.2826,3.2834,3.2842,3.2872,3.2883,3.2748,3.2748,3.2748,3.2748,0,3.2352,3.2396,3.2432,3.2478,3.2507,3.2556,3.2572,3.2601,3.2602,3.2616,3.2679,3.2707,3.2754,3.2772,3.2773,3.2848,3.2838,3.2824,3.2794,3.2856,3.2883,3.2895,3.2751,3.2751,3.275,3.2749,0,0,3.2437,3.2487,3.25,3.2522,3.2562,3.2597,3.2647,3.2692,3.2717,3.2751,3.2794,3.2856,3.2844,3.287,3.2875,3.291,3.2975,3.2891,3.2892,3.2907,3.306,3.3071,3.3084,3.2971,3.2973,3.2975,3.3058,0,3.2512,3.2598,3.2606,3.2684,3.2727,3.2721,3.2765,3.2795,3.281,3.2849,3.2866,3.291,3.2889,3.2906,3.294,3.296,3.3006,3.2954,3.3012,3.3014,3.3004,3.3098,3.311,3.3187,3.3068,3.307,3.3072,0,3.261,3.2647,3.2729,3.2765,3.2783,3.2822,3.2865,3.2902,3.2937,3.2945,3.2975,3.2976,3.3029,3.2997,3.3071,3.3035,3.306,3.3073,3.3077,3.3083,3.3047,3.3108,3.3211,3.3223,3.3089,3.3087,3.3086,0,3.2666,3.2736,3.2794,3.2813,3.2856,3.2884,3.2903,3.2936,3.2963,3.3001,3.3019,3.3063,3.3088,3.3122,3.3136,3.3111,3.3209,3.3178,3.3219,3.3219,3.3241,3.3239,3.335,3.3255,3.3255,3.3255,3.3255,0,3.2749,3.28,3.282,3.2856,3.2914,3.2923,3.298,3.2999,3.3028,3.3069,3.3067,3.3106,3.312,3.3162,3.3172,3.3233,3.3244,3.3253,3.3256,3.3254,3.3253,3.3271,3.3266,3.3258,3.3257,3.3257,3.3256,0,3.2821,3.2836,3.29,3.2936,3.2946,3.2987,3.3018,3.3054,3.3069,3.3121,3.3134,3.3157,3.3206,3.3223,3.3282,3.3289,3.336,3.3357,3.3348,3.3349,3.339,3.3386,3.3516,3.3534,3.3427,3.3428,3.3428,0,3.2873,3.2912,3.2952,3.2979,3.3,3.3043,3.3071,3.3082,3.3112,3.3155,3.3186,3.3235,3.3274,3.3353,3.3376,3.3422,3.3421,3.3464,3.3428,3.3426,3.3423,3.3421,3.3426,3.347,3.3472,3.3472,3.3473,0,3.2965,3.2971,3.3011,3.3054,3.3088,3.3122,3.3156,3.3178,3.3195,3.3229,3.3278,3.3309,3.337,3.3418,3.3465,3.3487,3.3484,3.3484,3.3496,3.3495,3.3489,3.3494,3.3367,3.3481,3.348,3.348,3.3479,3.3479,3.303,3.3065,3.3099,3.3144,3.317,3.3202,3.3238,3.3258,3.3299,3.3349,3.3353,3.3408,3.3444,3.3506,3.353,3.3574,3.3562,3.3579,3.3584,3.3588,3.3592,3.3481,3.3582,3.3582,3.3582,3.3582,3.3581,0,3.3123,3.3144,3.3186,3.3233,3.3269,3.3262,3.3299,3.333,3.3378,3.3411,3.345,3.3508,3.3556,3.3583,3.3631,3.3661,3.3661,3.3673,3.3672,3.3677,3.3599,3.3584,3.3673,3.3673,3.3673,3.3673,3.3672,3.3672,3.3175,3.3235,3.3245,3.3319,3.334,3.3393,3.3415,3.3445,3.3472,3.3536,3.3576,3.3593,3.3625,3.3675,3.372,3.3727,3.3745,3.3759,3.3765,3.3692,3.3682,3.3673,3.366,3.3762,3.3763,3.384,3.384,3.3841]},{"header":{"parameterUnit":"m.s-1","parameterCategory":1,"la1":30.2991,"la2":30.254,"lo1":-89.0895,"lo2":-89.0444,"dx":0.0017,"dy":0.0017,"nx":28,"ny":28,"refTime":"2022-12-14T09:00:00:Z","depth":0,"parameterNumber":3,"parameterNumberName":"V-component_of_WINDS"},"data":[0,0,0,0,0,0,0,0,0,0,0,0,0,0,0,0,0,0,0,0,0,0,0,0,0,0,0,0,0,0,0,0,0,0,0,0,0,0,0,0,0,0,0,0,0,0,0,0,0,0,0,0,0,0,0,0,0,0,-2.2074,-2.2075,0,-2.2133,-2.2134,-2.2135,-2.2147,-2.2146,-2.2146,-2.2145,-2.2204,-2.2206,-2.2208,0,0,0,0,0,0,0,0,0,0,0,0,0,-2.1972,-2.1973,-2.2074,-2.2075,-2.2076,-2.2133,-2.2134,-2.2135,-2.2147,-2.2146,-2.2146,-2.2145,-2.2204,-2.2206,-2.2208,0,0,0,0,0,0,0,0,0,0,0,0,0,-2.2022,-2.1974,-2.2074,-2.2089,-2.209,-2.2133,-2.2134,-2.2135,-2.2147,-2.2146,-2.2145,-2.2145,-2.2203,-2.2206,-2.2209,-2.2241,0,0,-2.2218,-2.2219,0,0,0,0,0,0,0,0,-2.2019,-2.2026,-2.2086,-2.2088,-2.209,-2.2132,-2.2119,-2.217,-2.2147,-2.2125,-2.2145,-2.2144,-2.2181,-2.2185,-2.2198,-2.2243,-2.2246,-2.2218,-2.222,-2.2221,-2.2222,0,0,0,0,0,0,0,-2.2016,-2.2023,-2.2098,-2.2087,-2.2089,-2.2092,-2.2098,-2.2129,-2.2156,-2.2127,-2.2128,-2.2135,-2.2182,-2.2195,-2.2199,-2.2247,-2.2218,-2.2221,-2.2222,-2.2224,-2.2323,-2.2324,0,0,0,0,0,0,-2.201,-2.202,-2.2096,-2.2099,-2.2052,-2.2094,-2.2102,-2.2119,-2.2156,-2.2161,-2.2136,-2.2135,-2.219,-2.2196,-2.2201,-2.2242,-2.2221,-2.2224,-2.2226,-2.2322,-2.2323,-2.2324,0,0,0,0,0,0,-2.2007,-2.2016,-2.2093,-2.206,-2.207,-2.2097,-2.2116,-2.2121,-2.2134,-2.2162,-2.2167,-2.2144,-2.219,-2.2197,-2.2231,-2.2244,-2.2225,-2.2228,-2.2321,-2.2322,-2.2324,-2.2323,0,0,0,0,0,0,-2.2004,-2.2015,-2.2028,-2.206,-2.2072,-2.2122,-2.2117,-2.2122,-2.2139,-2.214,-2.2172,-2.2176,-2.219,-2.2227,-2.2234,-2.2248,-2.223,-2.232,-2.2322,-2.2323,-2.2322,-2.2324,-2.2326,0,0,0,0,0,-2.2001,-2.2025,-2.2028,-2.2037,-2.2088,-2.2123,-2.2129,-2.2145,-2.214,-2.2153,-2.2171,-2.2175,-2.2242,-2.223,-2.2239,-2.2254,-2.2319,-2.2321,-2.2323,-2.2321,-2.2324,-2.2326,0,0,0,0,0,0,-2.1992,-2.2029,-2.2033,-2.2069,-2.2093,-2.2125,-2.2141,-2.2147,-2.2172,-2.2172,-2.219,-2.2197,-2.223,-2.2245,-2.2231,-2.2287,-2.228,-2.2284,-2.2276,-2.2279,-2.2281,-2.2276,-2.2233,0,0,0,0,0,-2.1994,-2.202,-2.2051,-2.2079,-2.2091,-2.2114,-2.213,-2.214,-2.2165,-2.2175,-2.2196,-2.222,-2.2247,-2.2263,-2.2289,-2.2325,-2.2332,-2.2339,-2.2341,-2.2343,-2.2346,-2.2367,-2.2371,-2.233,-2.233,-2.233,0,0,-2.1999,-2.2022,-2.2037,-2.2078,-2.2097,-2.2123,-2.2122,-2.2149,-2.2169,-2.2179,-2.2213,-2.2229,-2.2257,-2.2292,-2.2309,-2.2306,-2.2359,-2.2345,-2.2346,-2.2349,-2.2369,-2.2373,-2.2376,-2.2332,-2.2331,-2.2331,0,0,-2.2021,-2.2041,-2.2067,-2.2087,-2.2118,-2.2133,-2.214,-2.2171,-2.2183,-2.2217,-2.2226,-2.2249,-2.2294,-2.2314,-2.233,-2.2362,-2.2367,-2.237,-2.238,-2.2401,-2.2404,-2.2407,-2.2419,-2.2423,-2.2373,-2.2373,-2.2373,0,-2.2023,-2.2063,-2.208,-2.2107,-2.2125,-2.2137,-2.2164,-2.2182,-2.2219,-2.2231,-2.2228,-2.2286,-2.2305,-2.2346,-2.2354,-2.2366,-2.2375,-2.2366,-2.2402,-2.2405,-2.2408,-2.242,-2.2424,-2.2373,-2.2373,-2.2373,-2.2373,0,-2.2064,-2.2091,-2.2109,-2.2146,-2.2166,-2.2193,-2.2214,-2.2232,-2.2241,-2.2257,-2.2293,-2.2317,-2.2349,-2.2359,-2.2367,-2.2401,-2.2399,-2.2399,-2.2392,-2.2412,-2.2423,-2.2428,-2.2373,-2.2373,-2.2373,-2.2373,0,0,-2.2081,-2.2128,-2.2134,-2.2151,-2.2187,-2.2208,-2.2236,-2.2268,-2.2284,-2.2309,-2.2333,-2.2372,-2.2373,-2.2391,-2.2402,-2.242,-2.2445,-2.2418,-2.2419,-2.2422,-2.2485,-2.2485,-2.249,-2.2448,-2.2449,-2.245,-2.2482,0,-2.2108,-2.2158,-2.2175,-2.2218,-2.2244,-2.2256,-2.228,-2.2305,-2.2321,-2.2346,-2.2363,-2.2391,-2.2389,-2.24,-2.2418,-2.2438,-2.2457,-2.2435,-2.2471,-2.2472,-2.2464,-2.2495,-2.2496,-2.2525,-2.2487,-2.2488,-2.2488,0,-2.2145,-2.2173,-2.2218,-2.2251,-2.2262,-2.2284,-2.2316,-2.2339,-2.2367,-2.2378,-2.2399,-2.2409,-2.2439,-2.2431,-2.2473,-2.2458,-2.2474,-2.2486,-2.2487,-2.2491,-2.2481,-2.2501,-2.2535,-2.2539,-2.2495,-2.2495,-2.2494,0,-2.2154,-2.2202,-2.2236,-2.225,-2.2289,-2.2304,-2.2322,-2.2349,-2.2368,-2.2395,-2.2407,-2.2437,-2.2454,-2.2477,-2.2495,-2.2488,-2.2536,-2.2529,-2.2546,-2.2546,-2.2556,-2.2555,-2.2593,-2.2565,-2.2565,-2.2565,-2.2565,0,-2.2182,-2.2209,-2.224,-2.2261,-2.2292,-2.2312,-2.2342,-2.236,-2.2385,-2.2409,-2.2421,-2.2444,-2.2466,-2.2492,-2.2506,-2.254,-2.2547,-2.2557,-2.256,-2.2556,-2.2555,-2.2566,-2.2565,-2.2566,-2.2566,-2.2566,-2.2566,0,-2.2197,-2.2219,-2.2256,-2.2291,-2.2301,-2.2322,-2.2352,-2.2373,-2.239,-2.2421,-2.2429,-2.2456,-2.2487,-2.2508,-2.2547,-2.2557,-2.2594,-2.2596,-2.2584,-2.2586,-2.2602,-2.2601,-2.265,-2.2657,-2.2624,-2.2624,-2.2624,0,-2.2214,-2.2235,-2.2273,-2.2291,-2.2308,-2.2336,-2.2355,-2.2376,-2.2396,-2.243,-2.2447,-2.2479,-2.2506,-2.2555,-2.2578,-2.2609,-2.2613,-2.2628,-2.2618,-2.2613,-2.2614,-2.2613,-2.2615,-2.263,-2.263,-2.263,-2.263,0,-2.2241,-2.2252,-2.2279,-2.2311,-2.2334,-2.236,-2.2386,-2.24,-2.2425,-2.2447,-2.2479,-2.25,-2.2541,-2.2573,-2.2607,-2.2624,-2.2632,-2.2634,-2.2639,-2.2635,-2.2628,-2.2633,-2.2589,-2.2632,-2.2632,-2.2632,-2.2632,-2.2632,-2.2258,-2.2278,-2.2309,-2.2339,-2.2361,-2.2386,-2.2408,-2.2428,-2.2456,-2.2491,-2.2502,-2.2536,-2.2565,-2.261,-2.2629,-2.2656,-2.2654,-2.2662,-2.2664,-2.2666,-2.2667,-2.2623,-2.2662,-2.2662,-2.2662,-2.2662,-2.2662,0,-2.2287,-2.2307,-2.2336,-2.2372,-2.2397,-2.2403,-2.2432,-2.2452,-2.2482,-2.2509,-2.2536,-2.2574,-2.2605,-2.2631,-2.2664,-2.2681,-2.2685,-2.2689,-2.2688,-2.2692,-2.2666,-2.2658,-2.2685,-2.2685,-2.2685,-2.2685,-2.2685,-2.2685,-2.2305,-2.234,-2.2354,-2.24,-2.242,-2.2454,-2.2471,-2.2494,-2.2515,-2.2557,-2.2584,-2.2601,-2.2628,-2.2663,-2.2692,-2.2699,-2.2711,-2.2714,-2.2722,-2.2696,-2.2694,-2.2691,-2.2684,-2.2716,-2.2716,-2.2746,-2.2746,-2.2747]}]]